www.pogodaiklimat.ru

Погода и климат >> Архив погоды >> Казахстан >> Караганда


АРХИВ ПОГОДЫ в Караганде

Время (UTC), дата Ветер
(напр.,м/с)
 
Видим.   Явления Облачность Т
(С)
Тd
(С)
f
(%)
Тe
(С)
Тes
(С)
Комфортность P
(гПа)
Po
(гПа)
Тmin
(С)
Tmax
(С)
R
(мм)
R24
(мм)
S
(см)
21 19.04 ЮВ 1 20 км ясно +7.3 +1.0 64 +7 +7 тепло 1022.3 956.4
00 20.04 С 1 20 км 1/0
[Ac trans]
+3.6 +1.1 84 +2 +2 по сезону 1023.3 956.5
03 20.04 СВ 4 20 км 3/0
[Ci fib]
+11.8 +3.1 55 +10 +13 тепло 1021.6 956.8
06 20.04 СВ 5 20 км 6/6 1000 м
[Cu med, cong]
+16.7 +3.0 40 +16 +19 тепло 1020.3 956.6 +2.6
09 20.04 СВ 5 20 км 8/6 1000 м
[Cu med, cong Ci fib]
+19.1 +1.0 30 +19 +21 тепло 1018.4 955.3
12 20.04 СВ 5 20 км 4/4 1000 м
[Cu hum]
+18.4 +1.5 32 +18 +19 тепло 1017.6 954.5
15 20.04 В 2 20 км ясно +12.6 +2.3 49 +12 +12 тепло 1019.0 954.5 +20.4
18 20.04 В 4 20 км ясно +10.2 +2.4 58 +8 +8 тепло 1019.6 954.6 +20.4
21 20.04 В 5 20 км ясно +8.0 +1.8 65 +5 +5 по сезону 1018.7 953.3
00 21.04 В 5 20 км ясно +6.8 +1.5 69 +3 +3 по сезону 1017.5 951.9
03 21.04 В 7 20 км ясно +12.2 +5.3 63 +9 +11 тепло 1014.8 950.6
06 21.04 ЮВ 7 20 км 6/0
[Ci sp]
+18.0 +6.1 46 +17 +21 тепло 1011.7 948.9 +6.3
09 21.04 ЮВ 7 20 км 8/3 1000 м
[Cu med, cong Ci sp]
+22.0 +6.8 37 +23 +25 комфорт 1007.5 945.8
12 21.04 Ю 3 20 км 9/9 600 м
[Cb cap]
+21.3 +7.1 40 +22 +22 комфорт 1005.7 943.9
15 21.04 ЮВ 1 20 км в посл. час ливневой дождь 8/8 600 м
[Cb cap]
+16.4 +7.9 57 +17 +17 тепло 1005.8 943.0 +24.0
18 21.04 Ю 3 20 км {ливн. осадки} 8/5 600 м
[Cb cap Ac trans]
+13.6 +9.6 77 +12 +12 тепло 1006.0 942.7 +24.0 0.0
21 21.04 ЮЗ 3 20 км 8/4 600 м
[Cb cap Ac trans]
+10.8 +8.4 85 +9 +9 тепло 1005.8 941.8
00 22.04 Ю 4 10 км слабый ливневой дождь 10/10 600 м
[Cb cap]
+11.0 +10.3 95 +8 +8 тепло 1004.7 940.9
03 22.04 ЮЗ 4 20 км {ливн. осадки, морось} 9/8 300 м
[St Ac trans]
+11.3 +9.6 89 +9 +9 тепло 1006.0 942.2
06 22.04 З 4 20 км в посл. час ливневой дождь {морось} 9/8 600 м
[Cb cap Ac trans]
+13.0 +11.0 88 +11 +12 по сезону 1008.1 944.5 +10.4 3
09 22.04 З 6 20 км {ливн. осадки} 9/6 600 м
[Cb cap Ac trans]
+14.5 +6.7 59 +13 +14 тепло 1011.1 947.6
12 22.04 З 6 20 км {ливн. осадки} 8/5 1000 м
[Sc diur, vesp Ci fib]
+14.3 +3.6 49 +13 +13 по сезону 1013.5 949.8
15 22.04 СЗ 3 20 км ясно +8.8 -2.0 47 +7 +7 по сезону 1018.4 953.1 +16.3
18 22.04 СЗ 2 20 км ясно +4.2 -1.7 65 +2 +2 по сезону 1022.2 955.6 +16.3 0.4
21 22.04 В 1 20 км ясно -0.4 -2.8 84 -2 -2 прохладно 1024.0 956.2
00 23.04 В 1 20 км 5/0
[Ci fib]
-1.1 -3.0 87 -3 -3 прохладно 1023.9 955.9
03 23.04 Ю 2 20 км 3/0
[Ci fib]
+5.9 -1.1 61 +4 +9 по сезону 1021.6 955.4
06 23.04 Ю 5 20 км 8/0
[Ci sp]
+14.2 -2.9 31 +13 +19 тепло 1017.8 953.7 -1.4
09 23.04 ЮЗ 6 20 км 6/0
[Ac trans Ci fib]
+18.5 -2.8 23 +18 +22 тепло 1014.7 951.7
12 23.04 З 7
{16}
20 км в посл. час ливневой дождь 5/5 600 м
[Cb cap]
+15.3 -1.6 31 +14 +14 тепло 1014.8 951.3
15 23.04 З 3 20 км 1/0
[Ci fib]
+10.7 -0.2 47 +9 +9 по сезону 1017.8 953.0 +20.6
18 23.04 штиль 0 20 км ясно +4.2 +0.7 78 +3 +3 по сезону 1020.4 954.0 +20.6 0.0
21 23.04 ЮЗ 2 20 км ясно +4.5 +1.0 78 +2 +2 по сезону 1021.4 955.0
00 24.04 ЮЗ 2 20 км ясно +3.4 +0.9 84 0 0 по сезону 1022.7 955.9
03 24.04 З 4 20 км 5/5 1000 м
[Sc]
+6.7 +0.5 65 +3 +5 по сезону 1023.5 957.4
06 24.04 З 4 20 км 1/1 1000 м
[Cu hum]
+11.0 -0.7 44 +9 +17 по сезону 1023.4 958.3 +3.4
09 24.04 З 4 20 км 3/0
[Ci fib]
+15.0 -1.1 33 +14 +22 тепло 1022.8 958.6
12 24.04 СЗ 3 20 км 6/0
[Ci fib]
+16.1 -0.2 33 +16 +18 тепло 1022.1 958.1
15 24.04 СВ 1 20 км 8/0
[Ci sp]
+11.7 0.0 44 +12 +12 тепло 1023.5 958.5 +17.1
18 24.04 штиль 0 20 км ясно +7.4 -0.1 59 +7 +7 по сезону 1025.1 959.1 +17.1
21 24.04 штиль 0 20 км ясно +5.7 +1.0 72 +5 +5 по сезону 1025.1 958.7
00 25.04 ЮВ 2 20 км ясно +5.5 -0.1 67 +3 +3 по сезону 1024.1 957.7
03 25.04 ЮВ 2 20 км ясно +13.4 +0.3 41 +13 +18 тепло 1022.4 957.9
06 25.04 ЮВ 3 20 км ясно +21.0 -1.7 22 +21 +33 комфорт 1020.4 957.6 +5.0
09 25.04 ЮВ 3 20 км 1/0
[Ci fib]
+24.6 -3.8 15 +23 +33 комфорт 1017.9 956.0
12 25.04 ЮВ 3 20 км ясно +25.2 -1.3 17 +23 +26 комфорт 1016.6 954.8
15 25.04 ЮВ 2 20 км 3/0
[Ci fib]
+18.4 +2.7 35 +19 +19 тепло 1017.5 954.4 +26.5
18 25.04 В 2 20 км ясно +12.4 +3.1 53 +12 +12 тепло 1019.1 954.6 +26.5
21 25.04 В 2 20 км ясно +10.7 +2.3 56 +10 +10 тепло 1019.0 954.1
00 26.04 ЮВ 1 20 км 3/0
[Ci fib]
+9.5 +1.8 59 +9 +9 тепло 1019.5 954.3
03 26.04 ЮВ 3 20 км 3/0
[Ci fib]
+16.6 +2.0 37 +16 +21 тепло 1017.8 954.2
06 26.04 Ю 3 20 км 6/0
[Ci]
+23.8 -1.1 19 +22 +33 комфорт 1015.0 953.1 +9.0
09 26.04 Ю 3 20 км 3/0
[Ci fib]
+26.0 -1.0 17 +24 +34 комфорт 1013.5 952.1
12 26.04 Ю 4 20 км 3/0
[Ci fib]
+26.2 -1.8 16 +24 +26 комфорт 1012.4 951.1
15 26.04 ЮВ 1 20 км 1/0
[Ci fib]
+18.8 +4.3 38 +20 +20 тепло 1013.7 950.9 +27.3
18 26.04 ЮВ 1 20 км ясно +12.8 +4.5 57 +13 +13 тепло 1014.6 950.5 +27.3

 

Местоположение метеостанции Караганда (Карагандинская область, Казахстан): широта 49.80 долгота 73.15 высота над уровнем моря 553 м.

В архиве по умолчанию представлена погода в Караганде за последнюю неделю. Архивные данные за месяц целиком и за предыдущие месяцы, начиная с января 2011 года, Вы можете получить, выбрав интересующий диапазон дат из раскрывающегося списка и нажав кнопку "Ввод!".

Внимание! Время в таблицах - всемирное. Для получения местного времени необходимо прибавить поправку, которая в Караганде равна 6 ч.

Смотрите также архив погоды в соседних городах и на ближайших метеорологических станциях:

Погода в Караганде-ШОС (Карагандинская область, Казахстан) (4 км)
Погода в Корнеевке (Карагандинская область, Казахстан) (11 км)
Погода в Темиртау (Карагандинская область, Казахстан) (33 км)
Погода в Топаре (Карагандинская область, Казахстан) (40 км)
Погода в Осакаровке (Карагандинская область, Казахстан) (94 км)
Погода в Молодежном (Карагандинская область, Казахстан) (107 км)
Погода в Бесобе (Карагандинская область, Казахстан) (108 км)
Погода в Жарыке (Карагандинская область, Казахстан) (108 км)
Погода в Кертинди (Карагандинская область, Казахстан) (114 км)
Погода в Киевке (Карагандинская область, Казахстан) (123 км)

Пояснения к столбцам:

Ветер - указаны скорость ветра в м/с - средняя за 10 мин, порывы в срок и между сроками (в фигурных скобках) и направление, откуда дует ветер: С - северный, СВ - северо-восточный, В - восточный, ЮВ - юго-восточный, Ю - южный, ЮЗ - юго-западный, З - западный, СЗ - северо-западный.
Видимость - горизонтальная дальность видимости в метрах или километрах. При видимости от 1 до 10 км при отсутствии осадков обычно наблюдается дымка, при ухудшении видимости до 1 км и менее - туман. В сухую погоду видимость может ухудшаться дымом, пылью или мглою.
Явления - указаны атмосферные явления, наблюдавшиеся в срок или в последний час перед сроком; фигурными скобками обозначены явления, наблюдавшиеся между сроками (за 1-3 часа до срока); квадратными скобками обозначены град или гололедные отложения с указанием их диаметра в мм.
Облачность - указаны через наклонную черту общая и нижняя облачность в баллах и высота нижней границы облаков в метрах; квадратными скобками обозначены формы облаков: Ci - перистые, Cs - перисто-слоистые, Cc - перисто-кучевые, Ac - высококучевые, As - высокослоистые, Sc - слоисто-кучевые, Ns - слоисто-дождевые, Cu - кучевые, Cb - кучево-дождевые. Подробнее классификацию облаков см. в Атласе облаков (PDF).
T - Температура воздуха - температура, измеренная на высоте 2 м над землей.
Td - Температура точки росы - температура, при понижении до которой содержащийся в воздухе водяной пар достигнет насыщения.
f - Относительная влажность воздуха - влажноcть воздуха, измеренная на высоте 2 м над землей.
Te - Эффективная температура - температура, которую ощущает одетый по сезону человек в тени. Характеристика душности погоды. При расчете учитывается влияние влажности воздуха и скорости ветра на теплоощущения человека.
Tes - Эффективная температура на солнце - температура, которую ощущает человек, с поправкой на солнечный нагрев. Характеристика знойности погоды. Зависит от высоты солнца над горизонтом, облачности и скорости ветра. Ночью, в пасмурную погоду, а также при ветре 12 м/с и более поправка равна нулю.
P - Атмосферное давление - приведенное к уровню моря атмосферное давление.
Po - Атмосферное давление - измеренное на уровне метеостанции атмосферное давление.
Tmin - Минимальная температура - минимум температуры воздуха на высоте 2 м над землей.
Tmax - Максимальная температура - максимум температуры воздуха на высоте 2 м над землей.
R - Количество осадков - Количество выпавших осадков за период времени, мм. При наведении курсора мыши на число - период времени, за который выпало указанное количество осадков.
R24 - Количество осадков - Количество выпавших осадков за 24 часа, мм.
S - Снежный покров - Высота снежного покрова, см. При наведении курсора мыши на число - состояние снежного покрова и степень покрытия местности в баллах.